METAR EVRA 260020Z 19004KT CAVOK 15/11 Q1026 NOSIG =

Latvia vACC - Contacts

Contact Latvia vACC Management

Administration:

Martins Lezdins - vACC LV Director - martins.lezdins[at]lv-vacc.org

Janeks Tompolskis - vACC LV Training Director / Website - This email address is being protected from spambots. You need JavaScript enabled to view it.


Events / Request ATC coverage: This email address is being protected from spambots. You need JavaScript enabled to view it.

Nils Gravelsins - vACC LV Event Coordinator - This email address is being protected from spambots. You need JavaScript enabled to view it.

Kaspars Fogels - vACC LV Event Coordinator - This email address is being protected from spambots. You need JavaScript enabled to view it.


ATC Training Instructors:

Arturs Akimovs - vACC LV Training Instructor - This email address is being protected from spambots. You need JavaScript enabled to view it.

 

Controllers Online

PositionControllerOnline
No controllers currently online

Booked ATC Today

* Times are UTC

The time is now

UTC: 

Local: 

Latvia vACC on twitter